Wind_Speed
16 15 14 13 13 12 11 11 10 9 8 7 7 7 7 7 6 6 7 7 7 7 7 8 8 8 9 9 11 12 14 16 17 18 19 19 19 19 18 18 18 19
17 17 16 16 15 13 13 13 12 12 11 10 10 10 9 9 9 8 9 9 9 9 9 9 9 9 9 9 10 12 13 15 17 18 18 18 18 18 17 17 18 19
18 18 18 17 16 15 15 15 15 14 14 13 13 13 12 12 11 11 10 10 11 11 11 10 9 9 9 9 10 11 13 15 17 17 18 18 18 17 17 16 17 18
20 19 19 18 17 17 18 18 17 17 16 15 16 15 14 14 14 13 12 12 12 12 12 11 11 10 9 9 10 11 13 15 16 17 18 18 18 18 17 16 16 18
21 20 19 19 19 20 20 20 19 18 17 18 18 17 16 16 16 15 15 14 14 14 13 12 12 11 10 10 10 11 12 15 16 16 17 18 18 18 17 16 16 17
22 21 20 20 21 22 21 20 20 19 19 20 19 18 18 17 17 17 16 16 16 15 15 14 13 12 11 11 10 11 12 14 15 16 17 17 17 17 17 16 17 17
23 22 21 21 21 22 21 21 20 20 20 20 19 19 18 18 18 18 18 17 17 17 16 16 15 14 13 12 11 11 12 14 15 15 16 17 17 16 16 16 17 17
23 22 22 22 22 22 22 21 21 21 21 20 19 19 19 19 19 18 18 18 18 18 18 17 16 16 15 13 13 12 13 13 14 15 16 16 16 16 15 15 16 18
23 23 22 22 23 23 23 23 22 22 21 20 19 19 19 19 19 19 18 19 19 18 19 18 18 17 16 15 14 13 13 14 14 15 15 16 16 16 16 16 16 18
23 24 24 24 24 24 24 24 24 23 23 22 20 20 19 19 19 19 19 19 19 19 19 19 19 18 18 17 16 15 15 15 15 15 15 15 16 16 16 16 17 18
23 24 25 25 25 25 25 25 25 25 25 24 23 22 20 20 19 19 19 20 20 20 20 19 19 20 19 18 18 17 17 17 17 16 16 16 16 17 17 17 17 18
22 24 26 26 26 25 25 25 26 26 26 26 25 24 23 22 21 21 20 21 21 21 21 20 20 20 21 20 20 20 19 19 19 18 17 17 17 18 18 18 18 19
23 25 27 27 26 25 25 26 27 27 27 27 27 27 26 25 24 23 22 22 23 23 22 21 21 21 22 22 22 22 21 21 21 21 20 19 18 18 19 19 19 19
25 26 27 27 27 26 26 27 28 28 28 29 29 30 29 28 27 26 25 25 25 24 24 23 22 22 23 24 24 24 24 23 23 23 23 22 21 20 20 21 20 20
26 26 27 28 28 27 27 29 30 29 29 30 31 31 31 30 30 29 28 27 27 26 26 25 24 24 25 26 26 26 26 25 26 25 25 24 24 22 22 22 22 21
26 27 28 28 29 29 29 30 31 31 31 32 32 32 32 31 31 31 30 30 30 29 29 28 27 26 26 27 28 28 28 27 28 28 27 27 26 25 24 24 23 23
26 27 28 29 30 30 30 31 32 32 33 33 33 34 33 33 32 32 31 31 32 32 31 31 30 29 29 30 30 30 30 30 30 30 30 29 28 27 26 25 25 24
27 27 28 30 31 31 31 32 33 34 34 35 35 36 35 35 34 33 32 32 33 33 33 32 32 31 32 33 33 33 33 33 32 32 32 31 30 29 27 27 26 25
28 28 29 30 31 32 32 33 34 35 37 37 37 37 37 36 36 35 34 33 34 34 34 33 33 33 34 35 35 35 35 35 35 34 34 33 32 30 29 28 27 27
30 30 30 31 32 32 33 34 35 37 38 39 38 38 38 37 36 35 35 34 34 34 34 34 34 35 36 36 36 37 37 37 36 35 35 34 32 31 31 30 29 28
32 32 32 32 33 34 34 35 37 38 39 40 40 40 39 38 36 36 36 36 34 34 34 34 34 35 36 37 37 38 39 39 38 37 35 34 33 32 32 31 31 29
34 34 34 34 34 35 36 37 38 39 40 41 41 41 40 39 38 37 37 35 34 33 33 33 33 34 35 37 38 38 40 40 39 37 36 35 34 33 32 32 32 31
35 35 35 35 36 36 38 39 40 40 41 41 41 41 41 40 39 38 36 34 33 34 34 34 34 34 35 37 37 38 40 40 39 38 37 36 35 34 34 33 33 33
37 37 37 37 37 38 39 40 41 42 41 41 41 41 41 41 40 40 38 37 36 36 37 36 35 35 35 36 37 39 39 40 39 39 39 37 36 35 35 35 35 34
37 37 37 38 38 39 40 41 42 43 42 42 42 42 42 42 41 41 41 40 40 39 39 39 37 36 37 37 37 39 40 40 40 40 40 39 37 36 37 37 37 36
39 38 39 39 40 41 41 42 42 43 42 42 43 43 43 43 43 43 43 42 42 42 42 41 39 38 37 37 37 39 40 41 41 41 41 40 38 38 39 39 39 38
Wind_Direction
228 229 232 232 233 236 242 248 252 256 258 260 262 268 275 282 288 289 288 286 284 284 286 292 301 310 319 331 344 352 357 360 1 359 359 360 1 1 1 1 2 3
229 231 233 235 236 239 244 250 255 259 262 264 265 268 274 279 285 289 291 291 291 290 290 292 296 302 309 320 333 344 351 355 355 354 354 355 357 358 359 359 360 1
227 230 233 235 237 240 243 247 252 256 261 265 268 272 277 281 285 288 292 293 293 293 293 295 297 300 304 314 327 339 346 350 350 349 348 350 352 354 356 358 359 359
224 227 233 237 237 238 240 244 247 252 258 263 267 272 278 282 285 289 292 293 293 292 292 293 295 297 301 310 323 334 341 344 345 345 344 345 348 350 353 356 357 357
225 225 228 234 237 239 240 243 246 251 255 259 264 271 276 280 284 287 290 291 291 290 289 289 289 292 296 306 316 327 336 339 340 340 341 342 344 346 349 353 355 355
232 228 226 229 235 239 241 243 246 250 253 256 262 267 272 277 281 284 287 289 289 288 285 284 284 287 292 300 310 320 329 334 336 336 337 338 340 342 346 350 351 351
232 233 231 230 235 240 244 245 247 249 252 256 260 264 269 273 276 280 284 285 286 285 283 281 281 284 288 295 303 313 323 329 332 333 333 333 335 338 342 347 349 349
233 236 235 235 237 241 243 245 246 248 251 254 257 261 265 268 271 275 279 281 282 282 281 279 279 281 285 291 297 305 315 322 326 329 329 328 329 332 337 344 347 347
236 239 239 239 240 242 244 245 245 246 248 251 253 256 260 263 267 270 273 277 278 278 278 277 277 279 282 287 292 298 307 314 319 323 324 323 323 325 330 337 342 344
238 241 241 241 242 244 245 247 248 248 248 249 250 252 256 260 263 266 269 272 274 274 274 275 275 277 281 285 288 292 298 305 311 316 319 318 317 319 323 329 335 338
240 243 245 243 243 244 246 248 250 251 251 251 250 250 252 255 258 262 265 267 270 271 272 273 274 275 279 282 284 287 292 297 303 308 312 313 311 312 316 321 327 331
244 245 247 248 246 246 247 248 250 252 253 254 253 252 251 251 253 257 260 263 266 268 269 271 272 274 277 279 281 284 288 292 296 301 305 308 307 306 309 315 320 324
247 248 250 252 252 250 249 250 251 252 254 255 256 255 254 252 252 253 256 259 262 264 267 269 271 273 274 276 278 281 284 287 290 294 299 303 304 302 303 308 313 318
248 250 252 255 256 254 253 253 253 253 253 255 256 257 257 257 255 253 253 256 259 262 264 267 269 270 272 274 276 278 281 283 285 289 293 297 300 299 299 303 308 312
248 250 252 255 257 256 254 254 255 255 255 255 256 257 259 260 259 257 255 255 256 259 261 263 265 267 269 271 273 275 277 279 281 284 288 292 296 296 295 297 302 307
249 251 253 254 255 255 254 254 255 256 256 256 257 258 260 261 261 260 259 258 258 258 259 260 261 263 266 269 271 273 274 276 278 280 284 288 292 294 292 291 295 301
253 253 254 254 254 254 253 252 254 255 256 256 257 258 259 259 261 261 262 262 262 261 262 263 262 262 264 266 268 270 271 273 275 278 281 285 289 291 289 287 289 295
254 255 255 255 255 254 253 252 252 253 255 255 256 257 258 259 260 261 262 263 264 264 266 267 267 265 265 266 267 268 270 272 274 276 279 282 286 288 286 282 283 288
257 257 258 257 257 256 254 252 251 251 252 253 255 256 258 259 259 260 262 263 264 266 267 269 270 269 268 268 269 270 270 271 272 274 277 280 283 286 284 279 277 281
257 258 258 257 257 256 254 252 250 250 250 251 253 255 256 257 259 260 262 263 264 265 267 269 270 270 270 271 271 271 271 271 272 273 275 278 281 283 281 277 274 276
256 257 257 257 256 255 253 251 249 249 249 249 251 252 254 257 260 262 262 261 262 263 265 267 268 270 271 271 271 271 271 271 271 272 274 276 278 280 280 276 274 275
256 258 258 258 256 254 252 251 249 249 248 248 249 250 252 255 258 261 261 260 259 260 262 264 266 268 269 269 269 269 270 270 271 271 272 273 274 276 277 275 273 274
257 259 260 259 257 255 252 251 250 249 249 248 248 249 250 252 255 259 260 258 257 258 259 261 264 266 267 267 267 267 267 268 269 269 269 269 269 271 273 273 271 272
258 260 261 260 259 256 254 253 252 250 249 249 248 248 248 249 251 254 256 256 257 258 260 261 263 265 267 267 266 264 264 264 265 265 264 264 264 265 268 270 270 270
259 260 261 261 260 258 256 255 253 253 251 250 249 249 248 248 249 250 253 255 257 258 260 261 262 264 266 268 267 264 262 261 261 261 261 261 260 260 262 265 267 268
258 259 260 260 260 260 259 257 256 255 253 252 250 249 248 247 248 249 251 252 255 257 259 260 261 262 265 267 267 264 262 261 260 260 261 260 259 257 257 260 262 265
Height
11021 11022 11023 11024 11024 11025 11026 11026 11027 11028 11028 11028 11029 11029 11029 11029 11030 11030 11030 11031 11031 11031 11031 11031 11031 11030 11030 11030 11029 11028 11027 11025 11024 11023 11022 11021 11020 11019 11018 11017 11016 11015
11020 11021 11022 11022 11023 11024 11025 11025 11026 11027 11027 11028 11028 11028 11028 11029 11029 11030 11030 11030 11030 11030 11030 11030 11030 11030 11030 11029 11029 11028 11026 11025 11024 11023 11022 11021 11020 11019 11018 11017 11016 11015
11019 11020 11020 11021 11022 11023 11023 11024 11024 11025 11026 11026 11027 11027 11028 11028 11029 11029 11029 11030 11030 11030 11030 11029 11029 11029 11029 11029 11028 11027 11026 11025 11024 11023 11022 11021 11020 11019 11018 11017 11016 11014
11017 11018 11019 11020 11021 11022 11022 11022 11023 11023 11024 11025 11026 11026 11027 11027 11028 11028 11029 11029 11029 11029 11029 11029 11028 11028 11028 11028 11027 11027 11026 11025 11024 11023 11022 11020 11019 11018 11018 11017 11016 11014
11016 11017 11018 11019 11020 11020 11021 11021 11022 11022 11023 11024 11024 11025 11026 11026 11027 11027 11028 11028 11028 11028 11028 11028 11028 11027 11027 11027 11027 11026 11025 11024 11023 11022 11021 11020 11019 11018 11017 11016 11015 11014
11014 11015 11017 11018 11018 11019 11019 11020 11021 11021 11022 11022 11023 11024 11024 11025 11026 11026 11026 11027 11027 11027 11027 11027 11027 11027 11026 11026 11026 11025 11025 11024 11023 11022 11021 11020 11019 11018 11017 11016 11015 11014
11012 11013 11015 11016 11017 11017 11018 11019 11020 11020 11020 11021 11021 11022 11023 11024 11024 11025 11025 11025 11026 11026 11026 11026 11026 11025 11025 11025 11025 11025 11024 11023 11022 11021 11020 11019 11019 11018 11017 11016 11015 11014
11010 11011 11013 11014 11015 11016 11017 11017 11018 11018 11019 11019 11020 11021 11021 11022 11022 11023 11023 11024 11024 11024 11024 11024 11024 11024 11024 11024 11024 11024 11023 11023 11022 11021 11019 11018 11018 11017 11017 11016 11015 11014
11009 11010 11011 11012 11013 11014 11014 11015 11016 11017 11017 11017 11018 11019 11019 11020 11020 11021 11022 11022 11022 11022 11022 11023 11023 11023 11023 11023 11023 11023 11022 11022 11021 11020 11019 11018 11017 11016 11016 11016 11015 11014
11007 11007 11008 11009 11010 11011 11012 11013 11014 11015 11015 11016 11016 11017 11017 11018 11018 11019 11019 11020 11020 11020 11020 11021 11021 11021 11021 11021 11021 11021 11021 11020 11020 11019 11018 11017 11016 11015 11015 11014 11014 11013
11004 11005 11005 11006 11007 11009 11010 11011 11012 11013 11013 11014 11014 11015 11015 11016 11016 11017 11017 11017 11018 11018 11018 11019 11019 11019 11020 11020 11020 11019 11019 11019 11019 11018 11017 11016 11015 11014 11014 11013 11013 11012
11001 11002 11002 11003 11004 11006 11007 11008 11009 11010 11011 11012 11012 11013 11013 11013 11014 11014 11015 11015 11015 11015 11016 11016 11017 11017 11018 11018 11018 11018 11017 11017 11017 11017 11016 11015 11015 11013 11013 11012 11011 11011
10998 10998 10999 11000 11002 11004 11005 11005 11006 11007 11008 11009 11010 11010 11011 11011 11011 11012 11012 11012 11012 11013 11013 11014 11015 11015 11016 11016 11016 11016 11016 11015 11015 11015 11014 11014 11014 11013 11012 11011 11010 11009
10994 10995 10996 10997 10998 11000 11002 11002 11003 11004 11005 11006 11007 11007 11008 11008 11009 11009 11010 11009 11010 11010 11011 11012 11012 11013 11013 11013 11014 11014 11014 11014 11013 11013 11012 11012 11012 11012 11011 11010 11009 11008
10991 10992 10993 10994 10995 10997 10998 10999 10999 11000 11002 11002 11003 11004 11005 11005 11006 11006 11007 11007 11007 11007 11008 11009 11010 11011 11011 11011 11011 11011 11012 11012 11011 11011 11010 11010 11010 11010 11009 11008 11007 11006
10988 10989 10990 10991 10992 10993 10994 10995 10996 10997 10998 10998 10999 11000 11001 11002 11002 11003 11003 11004 11004 11005 11005 11006 11007 11008 11008 11008 11008 11009 11009 11009 11009 11008 11008 11008 11008 11008 11007 11007 11006 11005
10985 10986 10987 10987 10988 10989 10990 10991 10992 10993 10993 10994 10995 10996 10997 10998 10998 10999 11000 11001 11001 11001 11002 11003 11004 11005 11005 11005 11005 11006 11006 11006 11006 11006 11006 11006 11006 11006 11005 11005 11004 11003
10982 10982 10983 10984 10984 10985 10986 10987 10988 10989 10989 10990 10991 10991 10992 10993 10994 10995 10996 10997 10997 10998 10998 10999 11001 11002 11002 11002 11002 11002 11003 11003 11003 11002 11002 11003 11003 11003 11003 11003 11002 11001
10977 10978 10979 10980 10980 10981 10982 10983 10984 10984 10985 10985 10986 10987 10988 10989 10990 10991 10992 10993 10993 10994 10995 10996 10997 10998 10998 10998 10999 10999 10999 10999 10999 10999 10999 10999 11000 11000 11000 11000 11000 10999
10973 10974 10974 10975 10976 10977 10978 10979 10979 10979 10980 10981 10982 10983 10984 10984 10986 10987 10988 10989 10990 10990 10991 10992 10993 10994 10994 10994 10995 10995 10995 10995 10995 10995 10995 10996 10996 10997 10997 10996 10996 10996
10968 10969 10970 10971 10971 10972 10973 10973 10974 10974 10975 10976 10977 10978 10979 10981 10982 10983 10984 10985 10986 10986 10987 10988 10989 10990 10990 10990 10990 10990 10990 10990 10990 10991 10992 10992 10993 10993 10992 10992 10992 10992
10963 10964 10965 10966 10966 10967 10967 10968 10968 10969 10970 10971 10972 10974 10975 10977 10978 10979 10979 10980 10981 10982 10983 10983 10984 10986 10986 10985 10986 10986 10985 10985 10986 10987 10988 10989 10989 10989 10988 10988 10987 10987
10958 10959 10960 10961 10961 10962 10962 10962 10963 10964 10965 10967 10968 10969 10970 10972 10973 10974 10975 10976 10977 10977 10977 10978 10980 10981 10981 10981 10981 10981 10981 10981 10982 10983 10983 10984 10985 10985 10985 10984 10983 10983
10953 10954 10954 10955 10956 10956 10956 10957 10958 10959 10960 10962 10963 10964 10965 10967 10968 10969 10970 10971 10971 10972 10972 10974 10976 10977 10976 10976 10977 10976 10976 10976 10977 10977 10978 10979 10980 10981 10980 10979 10979 10979
10948 10949 10949 10950 10950 10951 10951 10952 10953 10954 10955 10957 10957 10959 10960 10961 10962 10963 10964 10965 10966 10966 10967 10968 10970 10972 10972 10972 10972 10971 10971 10971 10971 10972 10972 10973 10975 10976 10976 10975 10974 10974
10942 10943 10944 10944 10945 10945 10946 10947 10948 10950 10951 10951 10952 10953 10954 10955 10957 10958 10959 10960 10961 10961 10962 10963 10965 10966 10967 10967 10967 10966 10965 10965 10965 10966 10966 10968 10970 10970 10970 10970 10970 10970